Location: N�rnberg
(49.4489°N, 11.0797°E)
Time: 08:57:39
(UTC+01:00)

ISS - Pass Details

Date: 22 March 2017
Orbit: 401 x 407 km, 51.6° (Epoch: 25 November)

Event Time Altitude Azimuth Distance (km) Brightness Sun altitude
Exits shadow 03:59:48 21° 141° (SE) 1,011 -1.8 -21.7°
Drops below altitude 10° 04:01:08 10° 133° (SE) 1,516 -0.7 -21.6°
Enters shadow 05:02:28 -58° 314° (NW) 11,271 3.4 -12.3°
